TITAN 3C TRANSTAGE DEB, 30000

Orbit data source: Space-Track

TITAN 3C TRANSTAGE DEB, 30000 is space debris in GEO originally from a launch on Thu, 26 Sep 1968 UTC launched from the Air Force Eastern Test Range (AFETR). Debris objects in space refer to the collection of defunct objects orbiting the Earth. Examples of debris include non-operational satellites, rocket bodies, and fragments generated from explosions, collisions, or faulty payload assembly.

Loading next visibility...
Identifier
30000, 1968-081J
Orbit
GEO
Country
Flag of USUS
Related business
Manufacturer
Unknown
Mission
Spacecraft
Bus & Motor
Unknown
Mass
Unknown
Launch date (UTC)
1968-09-26 (58 years ago)
Launch vehicle
Unknown
Launch site
Air Force Eastern Test Range (AFETR)
Object type
Payload
Rocket body
Debris
Shape & HBR
Unknown shape, 1.1 m
Radar Cross Section
Large (>1 m²)

Expand to show TLE details & history
Last TLE update: 7 hours ago

TLE from 7 hours ago
0 TITAN 3C TRANSTAGE DEB
1 30000U 68081J   26258.20631203 -.00000344  00000-0  00000-0 0  9998
2 30000   2.0839  46.1056 0105755 318.4638  11.1864  1.00909040 80142
Epoch: 2026-09-15T04:57Z
TLE epoch observation values (Epoch: 2026-09-15T04:57:05.359Z)
Latitude
-1.05397°
Longitude
-52.44382°
Altitude
35,171.326 km
Speed
3.113 km/s
True Right ascension
01h 04m 00s
True Declination
-1° 03' 10"
Sunlit
Object was in daylight at epoch
Visualization orbit readout
Latitude
Unknown
Longitude
Unknown
Altitude
Unknown
Speed
Unknown
Apparent Right ascension
Unknown
Apparent Declination
Unknown
Sunlit
N/A
Visualization observer readout
Local Sidereal Time
04:10:54
Azimuth
Unknown
Elevation
Unknown
Doppler factor
Unknown
Orbital elements
Apogee altitude
36,054.008 km
Perigee altitude
35,165.918 km
Semi-major axis
41,988.1 km
Eccentricity
0.01058
Inclination
2.0839°
RAAN
46.1056°
Arg. of periapsis
318.4638°
True anomaly
11.42459°
Mean anomaly
11.1864°
Eccentric anomaly
11.30518°
Mean motion
0.25226 °/min
Orbital period
1,427.08 mins
BSTAR
0
Loading maneuver chart data...
Computing Atmospheric mass density...

Documentation

Showing up to 5 results
|